AWQ771 WAMM-WIII

Flight info

Callsign AWQ771
Flight time 2h 55m
Altitude 36000
Route GOTSA W15 EGUKO
Aircraft A320/M-SDE3FGHIRWY/LB1

Departure

Time 2026-04-15 23:06
Airport Sam Ratulangi International Airport (WAMM)

Arrival

Time 2026-04-16 02:01
Airport Soekarno-Hatta International Airport (WIII)
Time Latitude Longitude Altitude Speed Heading
2026-04-15 22:52 1.54319 124.92343 336 ft 0 kts 310°
2026-04-15 22:55 1.54313 124.92350 332 ft 2 kts 308°
2026-04-15 22:55 1.54302 124.92363 332 ft 2 kts 309°
2026-04-15 22:55 1.54299 124.92367 332 ft 2 kts 310°
2026-04-15 22:55 1.54297 124.92369 332 ft 2 kts 310°
2026-04-15 22:56 1.54289 124.92379 332 ft 2 kts 310°
2026-04-15 22:56 1.54278 124.92392 332 ft 2 kts 312°
2026-04-15 22:56 1.54267 124.92404 332 ft 2 kts 317°
2026-04-15 22:56 1.54254 124.92415 332 ft 2 kts 343°
2026-04-15 22:57 1.54244 124.92417 333 ft 1 kts
2026-04-15 22:57 1.54243 124.92417 333 ft 0 kts
2026-04-15 22:59 1.54257 124.92417 331 ft 7 kts
2026-04-15 22:59 1.54320 124.92419 333 ft 8 kts
2026-04-15 22:59 1.54372 124.92423 332 ft 7 kts 13°
2026-04-15 23:00 1.54427 124.92449 335 ft 11 kts 16°
2026-04-15 23:00 1.54517 124.92453 336 ft 15 kts
2026-04-15 23:00 1.54599 124.92456 333 ft 9 kts
2026-04-15 23:00 1.54658 124.92458 336 ft 9 kts
2026-04-15 23:01 1.54738 124.92461 335 ft 14 kts
2026-04-15 23:01 1.54848 124.92464 334 ft 18 kts
2026-04-15 23:01 1.54986 124.92468 334 ft 22 kts
2026-04-15 23:01 1.55148 124.92474 336 ft 25 kts
2026-04-15 23:02 1.55332 124.92480 334 ft 27 kts
2026-04-15 23:02 1.55520 124.92486 336 ft 27 kts
2026-04-15 23:02 1.55710 124.92492 336 ft 27 kts
2026-04-15 23:02 1.55899 124.92499 336 ft 27 kts
2026-04-15 23:03 1.56025 124.92503 336 ft 12 kts
2026-04-15 23:03 1.56101 124.92513 334 ft 10 kts 27°
2026-04-15 23:03 1.56120 124.92570 335 ft 8 kts 91°
2026-04-15 23:03 1.56119 124.92621 334 ft 7 kts 91°
2026-04-15 23:04 1.56115 124.92663 334 ft 5 kts 116°
2026-04-15 23:04 1.56089 124.92669 335 ft 3 kts 181°
2026-04-15 23:04 1.56075 124.92668 333 ft 1 kts 182°
2026-04-15 23:04 1.56073 124.92668 333 ft 1 kts 182°
2026-04-15 23:05 1.55918 124.92663 337 ft 59 kts 182°
2026-04-15 23:05 1.55276 124.92642 337 ft 123 kts 182°
2026-04-15 23:05 1.54248 124.92606 386 ft 167 kts 183°
2026-04-15 23:06 1.53079 124.92553 1010 ft 167 kts 182°
2026-04-15 23:06 1.51922 124.92514 1718 ft 166 kts 181°
2026-04-15 23:06 1.50707 124.92489 2028 ft 184 kts 181°
2026-04-15 23:06 1.49385 124.92341 2288 ft 202 kts 205°
2026-04-15 23:07 1.48380 124.91323 2519 ft 221 kts 249°
2026-04-15 23:07 1.48226 124.89720 2781 ft 246 kts 273°
2026-04-15 23:07 1.48353 124.87954 3271 ft 261 kts 274°
2026-04-15 23:07 1.48493 124.86130 4028 ft 265 kts 273°
2026-04-15 23:08 1.48562 124.85005 4513 ft 266 kts 273°
2026-04-15 23:08 1.48637 124.83316 5228 ft 269 kts 272°
2026-04-15 23:08 1.48689 124.81440 6011 ft 271 kts 271°
2026-04-15 23:08 1.48716 124.79551 6762 ft 273 kts 270°
2026-04-15 23:09 1.48725 124.77649 7479 ft 275 kts 270°
2026-04-15 23:09 1.48569 124.75739 8182 ft 278 kts 257°
2026-04-15 23:09 1.47880 124.73928 8870 ft 282 kts 241°
2026-04-15 23:09 1.46673 124.72369 9581 ft 287 kts 225°
2026-04-15 23:10 1.45149 124.71062 10225 ft 290 kts 222°
2026-04-15 23:10 1.43588 124.69733 10605 ft 304 kts 223°
2026-04-15 23:10 1.41927 124.68307 10759 ft 324 kts 222°
2026-04-15 23:10 1.40199 124.66816 11215 ft 332 kts 223°
2026-04-15 23:11 1.38436 124.65298 11809 ft 336 kts 222°
2026-04-15 23:11 1.36660 124.63771 12393 ft 339 kts 222°
2026-04-15 23:11 1.34866 124.62231 12974 ft 342 kts 222°
2026-04-15 23:11 1.33045 124.60670 13557 ft 345 kts 222°
2026-04-15 23:12 1.31215 124.59100 14084 ft 348 kts 222°
2026-04-15 23:12 1.29370 124.57517 14573 ft 350 kts 222°
2026-04-15 23:12 1.27512 124.55920 15084 ft 352 kts 222°
2026-04-15 23:12 1.25651 124.54320 15582 ft 354 kts 222°
2026-04-15 23:13 1.23772 124.52702 16094 ft 357 kts 222°
2026-04-15 23:13 1.21909 124.51099 16585 ft 359 kts 222°
2026-04-15 23:13 1.19990 124.49448 17100 ft 361 kts 222°
2026-04-15 23:13 1.18102 124.47824 17584 ft 363 kts 221°
2026-04-15 23:14 1.16157 124.46153 18086 ft 365 kts 221°
2026-04-15 23:14 1.14249 124.44516 18519 ft 368 kts 221°
2026-04-15 23:14 1.12367 124.42775 18908 ft 370 kts 229°
2026-04-15 23:14 1.10849 124.40695 19301 ft 371 kts 241°
2026-04-15 23:15 1.09793 124.38333 19698 ft 373 kts 252°
2026-04-15 23:15 1.09234 124.35799 20096 ft 376 kts 261°
2026-04-15 23:15 1.08854 124.33210 20496 ft 378 kts 261°
2026-04-15 23:15 1.08466 124.30609 20884 ft 380 kts 261°
2026-04-15 23:16 1.08205 124.28869 21145 ft 381 kts 261°
2026-04-15 23:16 1.08189 124.28762 21161 ft 381 kts 261°
2026-04-15 23:16 1.07953 124.27133 21394 ft 383 kts 261°
2026-04-15 23:16 1.07565 124.24494 21776 ft 384 kts 261°
2026-04-15 23:17 1.07167 124.21844 22141 ft 387 kts 261°
2026-04-15 23:17 1.06761 124.19182 22517 ft 389 kts 261°
2026-04-15 23:17 1.06354 124.16506 22859 ft 391 kts 261°
2026-04-15 23:17 1.05947 124.13813 22948 ft 392 kts 261°
2026-04-15 23:18 1.05542 124.11128 22946 ft 391 kts 261°
2026-04-15 23:18 1.05138 124.08444 22948 ft 391 kts 261°
2026-04-15 23:18 1.04735 124.05760 22943 ft 391 kts 261°
2026-04-15 23:18 1.04333 124.03065 22945 ft 391 kts 261°
2026-04-15 23:19 1.03939 124.00413 22945 ft 391 kts 262°
2026-04-15 23:19 1.03539 123.97728 22943 ft 391 kts 261°
2026-04-15 23:19 1.03133 123.95031 23227 ft 394 kts 261°
2026-04-15 23:19 1.02720 123.92317 23584 ft 396 kts 261°
2026-04-15 23:20 1.02304 123.89590 23884 ft 398 kts 261°
2026-04-15 23:20 1.01887 123.86850 24182 ft 399 kts 261°
2026-04-15 23:20 1.01473 123.84102 24480 ft 401 kts 261°
2026-04-15 23:20 1.01058 123.81342 24772 ft 403 kts 262°
2026-04-15 23:21 1.00642 123.78571 25066 ft 404 kts 261°
2026-04-15 23:21 1.00224 123.75781 25354 ft 406 kts 261°
2026-04-15 23:21 0.99804 123.72987 25641 ft 408 kts 261°
2026-04-15 23:21 0.99382 123.70177 25925 ft 409 kts 261°
2026-04-15 23:22 0.98958 123.67356 26209 ft 411 kts 261°
2026-04-15 23:22 0.98531 123.64527 26491 ft 413 kts 261°
2026-04-15 23:22 0.98105 123.61693 26765 ft 414 kts 261°
2026-04-15 23:22 0.97678 123.58836 27032 ft 416 kts 262°
2026-04-15 23:23 0.97253 123.55969 27289 ft 418 kts 262°
2026-04-15 23:23 0.96825 123.53090 27547 ft 419 kts 262°
2026-04-15 23:23 0.96392 123.50197 27809 ft 421 kts 262°
2026-04-15 23:23 0.95958 123.47299 28064 ft 423 kts 261°
2026-04-15 23:24 0.95519 123.44387 28324 ft 424 kts 261°
2026-04-15 23:24 0.95079 123.41468 28576 ft 426 kts 261°
2026-04-15 23:24 0.94637 123.38537 28822 ft 428 kts 261°
2026-04-15 23:24 0.94193 123.35594 29071 ft 429 kts 262°
2026-04-15 23:25 0.93733 123.32675 29311 ft 431 kts 260°
2026-04-15 23:25 0.93150 123.29735 29547 ft 433 kts 258°
2026-04-15 23:25 0.92463 123.26800 29784 ft 434 kts 256°
2026-04-15 23:25 0.91720 123.23870 30003 ft 436 kts 256°
2026-04-15 23:26 0.90958 123.20930 30194 ft 438 kts 256°
2026-04-15 23:26 0.90203 123.17971 30381 ft 439 kts 256°
2026-04-15 23:26 0.89470 123.15013 30583 ft 440 kts 256°
2026-04-15 23:26 0.88751 123.12035 30763 ft 441 kts 257°
2026-04-15 23:27 0.88045 123.09045 30947 ft 443 kts 257°
2026-04-15 23:27 0.87342 123.06044 31131 ft 444 kts 257°
2026-04-15 23:27 0.86635 123.03036 31310 ft 446 kts 257°
2026-04-15 23:27 0.85921 123.00016 31541 ft 446 kts 257°
2026-04-15 23:28 0.85449 122.98022 31710 ft 445 kts 257°
2026-04-15 23:28 0.84493 122.94003 32062 ft 444 kts 257°
2026-04-15 23:28 0.83780 122.90999 32324 ft 444 kts 257°
2026-04-15 23:28 0.83306 122.89008 32504 ft 443 kts 257°
2026-04-15 23:29 0.82352 122.85003 32840 ft 443 kts 257°
2026-04-15 23:29 0.81650 122.82053 33088 ft 442 kts 257°
2026-04-15 23:29 0.81170 122.80034 33263 ft 442 kts 257°
2026-04-15 23:29 0.80230 122.76072 33619 ft 442 kts 257°
2026-04-15 23:30 0.79751 122.74061 33779 ft 441 kts 257°
2026-04-15 23:30 0.78808 122.70115 34090 ft 441 kts 257°
2026-04-15 23:30 0.78096 122.67134 34304 ft 441 kts 257°
2026-04-15 23:30 0.77387 122.64150 34497 ft 441 kts 257°
2026-04-15 23:31 0.76911 122.62143 34633 ft 441 kts 257°
2026-04-15 23:31 0.76204 122.59163 34841 ft 440 kts 257°
2026-04-15 23:31 0.75505 122.56221 35026 ft 440 kts 256°
2026-04-15 23:31 0.74796 122.53248 35216 ft 440 kts 256°
2026-04-15 23:32 0.74086 122.50274 35390 ft 440 kts 256°
2026-04-15 23:32 0.73377 122.47297 35579 ft 440 kts 256°
2026-04-15 23:32 0.72671 122.44315 35747 ft 440 kts 256°
2026-04-15 23:32 0.71965 122.41345 35901 ft 441 kts 256°
2026-04-15 23:33 0.70547 122.35385 35961 ft 440 kts 256°
2026-04-15 23:33 0.69133 122.29439 35964 ft 440 kts 256°
2026-04-15 23:34 0.67716 122.23501 35963 ft 440 kts 256°
2026-04-15 23:36 0.62765 122.02670 35963 ft 440 kts 256°
2026-04-15 23:36 0.61345 121.96714 35968 ft 441 kts 257°
2026-04-15 23:37 0.59938 121.90797 35965 ft 441 kts 257°
2026-04-15 23:37 0.58511 121.84831 35969 ft 441 kts 256°
2026-04-15 23:38 0.57085 121.78876 35972 ft 441 kts 257°
2026-04-15 23:38 0.55667 121.72910 35965 ft 441 kts 257°
2026-04-15 23:39 0.54259 121.66951 35967 ft 441 kts 257°
2026-04-15 23:39 0.52842 121.60993 35963 ft 441 kts 257°
2026-04-15 23:40 0.51419 121.55032 35962 ft 441 kts 257°
2026-04-15 23:40 0.50003 121.49110 35959 ft 441 kts 257°
2026-04-15 23:41 0.48582 121.43151 35959 ft 441 kts 257°
2026-04-15 23:41 0.47160 121.37178 35962 ft 442 kts 257°
2026-04-15 23:42 0.45744 121.31206 35965 ft 442 kts 257°
2026-04-15 23:42 0.44323 121.25234 35961 ft 442 kts 256°
2026-04-15 23:43 0.42894 121.19251 35964 ft 442 kts 256°
2026-04-15 23:43 0.41466 121.13272 35965 ft 443 kts 256°
2026-04-15 23:44 0.40046 121.07286 35962 ft 443 kts 256°
2026-04-15 23:44 0.38617 121.01289 35963 ft 443 kts 256°
2026-04-15 23:45 0.37193 120.95307 35958 ft 443 kts 256°
2026-04-15 23:45 0.35764 120.89310 35956 ft 444 kts 256°
2026-04-15 23:46 0.34338 120.83312 35950 ft 444 kts 256°
2026-04-15 23:46 0.32903 120.77306 35952 ft 444 kts 256°
2026-04-15 23:47 0.31473 120.71303 35951 ft 445 kts 256°
2026-04-15 23:47 0.30040 120.65292 35952 ft 445 kts 256°
2026-04-15 23:48 0.28603 120.59284 35955 ft 445 kts 256°
2026-04-15 23:48 0.27168 120.53275 35956 ft 445 kts 256°
2026-04-15 23:49 0.25739 120.47267 35960 ft 445 kts 256°
2026-04-15 23:49 0.24304 120.41251 35956 ft 445 kts 256°
2026-04-15 23:50 0.22883 120.35280 35957 ft 445 kts 256°
2026-04-15 23:50 0.21451 120.29266 35960 ft 445 kts 256°
2026-04-15 23:51 0.19307 120.20244 35958 ft 445 kts 256°
2026-04-15 23:51 0.17874 120.14238 35955 ft 445 kts 256°
2026-04-15 23:52 0.16433 120.08212 35956 ft 445 kts 256°
2026-04-15 23:52 0.14996 120.02192 35955 ft 445 kts 256°
2026-04-15 23:53 0.13565 119.96162 35954 ft 446 kts 256°
2026-04-15 23:53 0.12125 119.90132 35952 ft 446 kts 256°
2026-04-15 23:54 0.10697 119.84111 35955 ft 446 kts 256°
2026-04-15 23:54 0.09258 119.78077 35949 ft 446 kts 256°
2026-04-15 23:55 0.07824 119.72082 35948 ft 447 kts 256°
2026-04-15 23:55 0.06384 119.66042 35950 ft 447 kts 256°
2026-04-15 23:56 0.04949 119.60002 35950 ft 447 kts 256°
2026-04-15 23:56 0.03509 119.53949 35946 ft 447 kts 256°
2026-04-15 23:57 0.01368 119.48156 35943 ft 446 kts 243°
2026-04-15 23:57 -0.01409 119.42615 35939 ft 446 kts 243°
2026-04-15 23:58 -0.04149 119.37077 35939 ft 446 kts 243°
2026-04-15 23:58 -0.06904 119.31495 35940 ft 447 kts 243°
2026-04-15 23:59 -0.09664 119.25927 35941 ft 447 kts 243°
2026-04-15 23:59 -0.12432 119.20356 35945 ft 448 kts 243°
2026-04-16 00:00 -0.15192 119.14785 35951 ft 448 kts 243°
2026-04-16 00:00 -0.17955 119.09199 35951 ft 448 kts 243°
2026-04-16 00:01 -0.20712 119.03655 35952 ft 448 kts 243°
2026-04-16 00:01 -0.23479 118.98070 35949 ft 448 kts 243°
2026-04-16 00:02 -0.26246 118.92487 35944 ft 448 kts 243°
2026-04-16 00:02 -0.29012 118.86909 35947 ft 448 kts 243°
2026-04-16 00:03 -0.31781 118.81313 35946 ft 449 kts 242°
2026-04-16 00:03 -0.34552 118.75721 35942 ft 449 kts 242°
2026-04-16 00:04 -0.37326 118.70130 35942 ft 449 kts 242°
2026-04-16 00:04 -0.40101 118.64535 35945 ft 449 kts 242°
2026-04-16 00:05 -0.42880 118.58939 35944 ft 450 kts 242°
2026-04-16 00:05 -0.45658 118.53329 35946 ft 450 kts 242°
2026-04-16 00:06 -0.48407 118.47774 35942 ft 450 kts 242°
2026-04-16 00:06 -0.51183 118.42165 35942 ft 450 kts 242°
2026-04-16 00:07 -0.53966 118.36561 35941 ft 450 kts 242°
2026-04-16 00:07 -0.56745 118.30962 35943 ft 450 kts 242°
2026-04-16 00:08 -0.59525 118.25353 35943 ft 450 kts 242°
2026-04-16 00:08 -0.62299 118.19742 35945 ft 450 kts 242°
2026-04-16 00:09 -0.65074 118.14135 35946 ft 451 kts 242°
2026-04-16 00:09 -0.67864 118.08519 35944 ft 451 kts 242°
2026-04-16 00:10 -0.70642 118.02914 35943 ft 451 kts 242°
2026-04-16 00:10 -0.73430 117.97301 35946 ft 451 kts 242°
2026-04-16 00:11 -0.76221 117.91673 35948 ft 451 kts 242°
2026-04-16 00:11 -0.79002 117.86053 35954 ft 452 kts 242°
2026-04-16 00:12 -0.81787 117.80427 35953 ft 452 kts 242°
2026-04-16 00:12 -0.84576 117.74793 35955 ft 452 kts 242°
2026-04-16 00:13 -0.87361 117.69164 35953 ft 452 kts 242°
2026-04-16 00:13 -0.90151 117.63526 35953 ft 452 kts 242°
2026-04-16 00:14 -0.92939 117.57897 35954 ft 452 kts 242°
2026-04-16 00:14 -0.95730 117.52272 35953 ft 452 kts 242°
2026-04-16 00:15 -0.98528 117.46638 35953 ft 452 kts 242°
2026-04-16 00:15 -1.01322 117.41002 35957 ft 453 kts 242°
2026-04-16 00:16 -1.04095 117.35397 35957 ft 453 kts 242°
2026-04-16 00:16 -1.06887 117.29756 35960 ft 453 kts 242°
2026-04-16 00:17 -1.09685 117.24111 35964 ft 453 kts 242°
2026-04-16 00:17 -1.12024 117.19383 35959 ft 453 kts 242°
2026-04-16 00:18 -1.14818 117.13735 35951 ft 454 kts 242°
2026-04-16 00:18 -1.17615 117.08083 35948 ft 454 kts 242°
2026-04-16 00:19 -1.20395 117.02465 35942 ft 454 kts 242°
2026-04-16 00:19 -1.23214 116.96777 35935 ft 454 kts 242°
2026-04-16 00:20 -1.25592 116.90977 35936 ft 456 kts 250°
2026-04-16 00:20 -1.27562 116.84952 35935 ft 456 kts 250°
2026-04-16 00:21 -1.29534 116.78920 35937 ft 456 kts 250°
2026-04-16 00:21 -1.31512 116.72907 35946 ft 456 kts 250°
2026-04-16 00:22 -1.33484 116.66884 35953 ft 456 kts 250°
2026-04-16 00:22 -1.35454 116.60868 35963 ft 456 kts 250°
2026-04-16 00:23 -1.37431 116.54846 35972 ft 456 kts 250°
2026-04-16 00:23 -1.39406 116.48825 35968 ft 456 kts 250°
2026-04-16 00:24 -1.41389 116.42800 35968 ft 456 kts 250°
2026-04-16 00:24 -1.43368 116.36776 35963 ft 456 kts 250°
2026-04-16 00:25 -1.45343 116.30755 35961 ft 456 kts 250°
2026-04-16 00:25 -1.47316 116.24727 35960 ft 456 kts 250°
2026-04-16 00:26 -1.49277 116.18741 35960 ft 456 kts 250°
2026-04-16 00:26 -1.51255 116.12711 35957 ft 457 kts 250°
2026-04-16 00:27 -1.53235 116.06678 35957 ft 457 kts 250°
2026-04-16 00:27 -1.55214 116.00640 35957 ft 457 kts 250°
2026-04-16 00:28 -1.57193 115.94598 35960 ft 457 kts 250°
2026-04-16 00:28 -1.59174 115.88554 35960 ft 458 kts 250°
2026-04-16 00:29 -1.61152 115.82510 35963 ft 458 kts 250°
2026-04-16 00:29 -1.63132 115.76457 35967 ft 458 kts 250°
2026-04-16 00:30 -1.65116 115.70401 35961 ft 458 kts 250°
2026-04-16 00:30 -1.67102 115.64355 35968 ft 458 kts 250°
2026-04-16 00:31 -1.69087 115.58307 35963 ft 458 kts 250°
2026-04-16 00:31 -1.71067 115.52252 35962 ft 458 kts 250°
2026-04-16 00:32 -1.73050 115.46209 35956 ft 457 kts 250°
2026-04-16 00:32 -1.75018 115.40195 35953 ft 457 kts 250°
2026-04-16 00:33 -1.77004 115.34141 35951 ft 458 kts 250°
2026-04-16 00:33 -1.79027 115.28104 35950 ft 458 kts 249°
2026-04-16 00:34 -1.81109 115.22090 35955 ft 458 kts 249°
2026-04-16 00:34 -1.83195 115.16069 35957 ft 458 kts 249°
2026-04-16 00:35 -1.85269 115.10048 35958 ft 458 kts 249°
2026-04-16 00:35 -1.87328 115.04026 35952 ft 457 kts 249°
2026-04-16 00:36 -1.89375 114.98016 35951 ft 457 kts 249°
2026-04-16 00:36 -1.91435 114.91995 35947 ft 457 kts 249°
2026-04-16 00:37 -1.93495 114.85992 35944 ft 457 kts 249°
2026-04-16 00:37 -1.95558 114.79998 35940 ft 457 kts 249°
2026-04-16 00:38 -1.97619 114.73986 35939 ft 457 kts 249°
2026-04-16 00:38 -1.99672 114.67967 35942 ft 457 kts 249°
2026-04-16 00:39 -2.01726 114.61955 35944 ft 457 kts 249°
2026-04-16 00:39 -2.03792 114.55939 35941 ft 457 kts 249°
2026-04-16 00:40 -2.05860 114.49914 35943 ft 457 kts 249°
2026-04-16 00:40 -2.07910 114.43892 35942 ft 458 kts 250°
2026-04-16 00:41 -2.09957 114.37874 35945 ft 458 kts 249°
2026-04-16 00:41 -2.12021 114.31857 35948 ft 458 kts 249°
2026-04-16 00:42 -2.14090 114.25821 35950 ft 458 kts 249°
2026-04-16 00:42 -2.16175 114.19794 35948 ft 458 kts 249°
2026-04-16 00:43 -2.18283 114.13784 35947 ft 458 kts 249°
2026-04-16 00:43 -2.20385 114.07774 35946 ft 458 kts 249°
2026-04-16 00:44 -2.22474 114.01758 35947 ft 458 kts 249°
2026-04-16 00:44 -2.24571 113.95729 35944 ft 458 kts 247°
2026-04-16 00:45 -2.27229 113.90034 35943 ft 457 kts 242°
2026-04-16 00:45 -2.29533 113.85285 35942 ft 457 kts 242°
2026-04-16 00:46 -2.32283 113.79607 35946 ft 457 kts 242°
2026-04-16 00:46 -2.35059 113.73863 35946 ft 458 kts 243°
2026-04-16 00:47 -2.37823 113.68131 35943 ft 458 kts 243°
2026-04-16 00:47 -2.40586 113.62399 35945 ft 458 kts 243°
2026-04-16 00:48 -2.43361 113.56650 35947 ft 458 kts 242°
2026-04-16 00:48 -2.46138 113.50911 35949 ft 459 kts 242°
2026-04-16 00:50 -2.57248 113.27912 35960 ft 459 kts 242°
2026-04-16 00:51 -2.60030 113.22146 35964 ft 459 kts 243°
2026-04-16 00:51 -2.62806 113.16393 35969 ft 460 kts 243°
2026-04-16 00:52 -2.65582 113.10637 35968 ft 460 kts 243°
2026-04-16 00:52 -2.68360 113.04875 35967 ft 460 kts 243°
2026-04-16 00:53 -2.71147 112.99109 35966 ft 460 kts 243°
2026-04-16 00:53 -2.73933 112.93352 35969 ft 460 kts 243°
2026-04-16 00:54 -2.76702 112.87594 35967 ft 460 kts 243°
2026-04-16 00:54 -2.79457 112.81866 35964 ft 460 kts 243°
2026-04-16 00:55 -2.82251 112.76075 35963 ft 460 kts 243°
2026-04-16 00:55 -2.85014 112.70346 35962 ft 460 kts 243°
2026-04-16 00:56 -2.87340 112.65528 35962 ft 460 kts 243°
2026-04-16 00:56 -2.90116 112.59752 35963 ft 460 kts 243°
2026-04-16 00:57 -2.94249 112.51151 35959 ft 460 kts 243°
2026-04-16 00:58 -2.97045 112.45353 35957 ft 460 kts 243°
2026-04-16 00:58 -2.99809 112.39628 35959 ft 459 kts 243°
2026-04-16 00:59 -3.02589 112.33870 35959 ft 459 kts 243°
2026-04-16 00:59 -3.05361 112.28105 35956 ft 459 kts 243°
2026-04-16 01:00 -3.08130 112.22350 35953 ft 459 kts 243°
2026-04-16 01:00 -3.10894 112.16588 35951 ft 459 kts 243°
2026-04-16 01:01 -3.13662 112.10825 35952 ft 459 kts 243°
2026-04-16 01:01 -3.16438 112.05069 35948 ft 459 kts 243°
2026-04-16 01:02 -3.19207 111.99313 35947 ft 459 kts 243°
2026-04-16 01:02 -3.21960 111.93588 35950 ft 459 kts 243°
2026-04-16 01:03 -3.24731 111.87832 35951 ft 459 kts 243°
2026-04-16 01:03 -3.27492 111.82082 35946 ft 459 kts 243°
2026-04-16 01:04 -3.30261 111.76323 35944 ft 459 kts 243°
2026-04-16 01:04 -3.33028 111.70572 35948 ft 459 kts 243°
2026-04-16 01:05 -3.35799 111.64810 35948 ft 459 kts 243°
2026-04-16 01:05 -3.38559 111.59056 35946 ft 459 kts 243°
2026-04-16 01:06 -3.41311 111.53322 35950 ft 459 kts 243°
2026-04-16 01:06 -3.44082 111.47568 35947 ft 459 kts 243°
2026-04-16 01:07 -3.46847 111.41808 35947 ft 459 kts 243°
2026-04-16 01:07 -3.49614 111.36025 35948 ft 459 kts 243°
2026-04-16 01:08 -3.52383 111.30261 35946 ft 460 kts 243°
2026-04-16 01:08 -3.55152 111.24501 35941 ft 460 kts 243°
2026-04-16 01:09 -3.57929 111.18713 35944 ft 460 kts 243°
2026-04-16 01:09 -3.60701 111.12938 35945 ft 461 kts 243°
2026-04-16 01:10 -3.63477 111.07154 35945 ft 461 kts 243°
2026-04-16 01:10 -3.66237 111.01397 35947 ft 461 kts 243°
2026-04-16 01:11 -3.69010 110.95604 35952 ft 462 kts 243°
2026-04-16 01:11 -3.71791 110.89801 35953 ft 462 kts 243°
2026-04-16 01:12 -3.74577 110.84005 35955 ft 462 kts 243°
2026-04-16 01:12 -3.77362 110.78189 35960 ft 462 kts 243°
2026-04-16 01:13 -3.80143 110.72391 35959 ft 462 kts 243°
2026-04-16 01:13 -3.82915 110.66597 35959 ft 462 kts 243°
2026-04-16 01:14 -3.85690 110.60784 35960 ft 462 kts 243°
2026-04-16 01:14 -3.88474 110.54989 35957 ft 462 kts 243°
2026-04-16 01:15 -3.91254 110.49198 35960 ft 462 kts 243°
2026-04-16 01:15 -3.94023 110.43398 35957 ft 461 kts 243°
2026-04-16 01:16 -3.96794 110.37596 35961 ft 461 kts 243°
2026-04-16 01:16 -3.99564 110.31796 35958 ft 461 kts 243°
2026-04-16 01:17 -4.02330 110.26009 35956 ft 461 kts 243°
2026-04-16 01:17 -4.05107 110.20218 35956 ft 461 kts 243°
2026-04-16 01:18 -4.07875 110.14426 35955 ft 461 kts 243°
2026-04-16 01:18 -4.10645 110.08629 35957 ft 461 kts 243°
2026-04-16 01:19 -4.13414 110.02841 35955 ft 461 kts 243°
2026-04-16 01:19 -4.16180 109.97046 35955 ft 461 kts 243°
2026-04-16 01:20 -4.18952 109.91242 35956 ft 461 kts 243°
2026-04-16 01:20 -4.21700 109.85478 35958 ft 461 kts 243°
2026-04-16 01:21 -4.24473 109.79684 35953 ft 461 kts 243°
2026-04-16 01:21 -4.27243 109.73880 35949 ft 461 kts 243°
2026-04-16 01:22 -4.30002 109.68079 35947 ft 461 kts 243°
2026-04-16 01:22 -4.32774 109.62267 35951 ft 462 kts 243°
2026-04-16 01:23 -4.35544 109.56459 35950 ft 462 kts 243°
2026-04-16 01:23 -4.38314 109.50650 35947 ft 462 kts 243°
2026-04-16 01:24 -4.41085 109.44833 35947 ft 462 kts 243°
2026-04-16 01:24 -4.43862 109.39015 35951 ft 463 kts 243°
2026-04-16 01:25 -4.46637 109.33188 35952 ft 463 kts 243°
2026-04-16 01:25 -4.49409 109.27359 35955 ft 463 kts 243°
2026-04-16 01:26 -4.52178 109.21529 35959 ft 463 kts 243°
2026-04-16 01:26 -4.54957 109.15704 35960 ft 463 kts 243°
2026-04-16 01:27 -4.57736 109.09868 35961 ft 463 kts 243°
2026-04-16 01:27 -4.60522 109.04039 35962 ft 463 kts 243°
2026-04-16 01:28 -4.63279 108.98251 35963 ft 463 kts 243°
2026-04-16 01:28 -4.66045 108.92420 35960 ft 463 kts 243°
2026-04-16 01:29 -4.68814 108.86596 35961 ft 463 kts 243°
2026-04-16 01:29 -4.72408 108.81321 35959 ft 459 kts 224°
2026-04-16 01:30 -4.77426 108.77435 35950 ft 455 kts 211°
2026-04-16 01:30 -4.82728 108.73977 35950 ft 455 kts 211°
2026-04-16 01:31 -4.88042 108.70506 35948 ft 455 kts 211°
2026-04-16 01:31 -4.93349 108.67040 35946 ft 455 kts 211°
2026-04-16 01:32 -4.98660 108.63573 35951 ft 456 kts 211°
2026-04-16 01:32 -5.03979 108.60102 35957 ft 456 kts 211°
2026-04-16 01:33 -5.09289 108.56625 35962 ft 455 kts 211°
2026-04-16 01:33 -5.14596 108.53156 35961 ft 455 kts 211°
2026-04-16 01:34 -5.19902 108.49689 35324 ft 462 kts 212°
2026-04-16 01:34 -5.22584 108.47934 34773 ft 460 kts 211°
2026-04-16 01:34 -5.25287 108.46165 34215 ft 458 kts 211°
2026-04-16 01:34 -5.27929 108.44434 33617 ft 457 kts 212°
2026-04-16 01:35 -5.30577 108.42699 33059 ft 453 kts 211°
2026-04-16 01:35 -5.33212 108.40974 32510 ft 450 kts 211°
2026-04-16 01:35 -5.35826 108.39263 31965 ft 448 kts 211°
2026-04-16 01:35 -5.38434 108.37557 31425 ft 445 kts 211°
2026-04-16 01:36 -5.41019 108.35866 30891 ft 443 kts 211°
2026-04-16 01:36 -5.43599 108.34178 30365 ft 441 kts 211°
2026-04-16 01:36 -5.46164 108.32501 29812 ft 439 kts 211°
2026-04-16 01:36 -5.48706 108.30842 29278 ft 435 kts 211°
2026-04-16 01:37 -5.51236 108.29193 28779 ft 430 kts 211°
2026-04-16 01:37 -5.53726 108.27568 28301 ft 426 kts 211°
2026-04-16 01:37 -5.56195 108.25948 27841 ft 421 kts 211°
2026-04-16 01:37 -5.58602 108.24333 27613 ft 411 kts 212°
2026-04-16 01:38 -5.60937 108.22728 27249 ft 404 kts 212°
2026-04-16 01:38 -5.63238 108.21130 26994 ft 400 kts 212°
2026-04-16 01:38 -5.65518 108.19547 26716 ft 398 kts 212°
2026-04-16 01:38 -5.67797 108.17975 26423 ft 396 kts 212°
2026-04-16 01:39 -5.70068 108.16417 26147 ft 394 kts 212°
2026-04-16 01:39 -5.72329 108.14869 25870 ft 392 kts 212°
2026-04-16 01:39 -5.74574 108.13335 25590 ft 390 kts 212°
2026-04-16 01:39 -5.76821 108.11800 25314 ft 389 kts 212°
2026-04-16 01:40 -5.79046 108.10280 25040 ft 387 kts 212°
2026-04-16 01:40 -5.81269 108.08761 24756 ft 385 kts 212°
2026-04-16 01:40 -5.83472 108.07256 24488 ft 383 kts 212°
2026-04-16 01:40 -5.84961 108.06237 24307 ft 382 kts 212°
2026-04-16 01:41 -5.87868 108.04244 23947 ft 380 kts 212°
2026-04-16 01:41 -5.89337 108.03235 23774 ft 379 kts 213°
2026-04-16 01:41 -5.91499 108.01736 23490 ft 377 kts 216°
2026-04-16 01:41 -5.93409 107.99936 23197 ft 378 kts 229°
2026-04-16 01:42 -5.94872 107.97745 22925 ft 378 kts 242°
2026-04-16 01:42 -5.95819 107.95279 22434 ft 380 kts 255°
2026-04-16 01:42 -5.96173 107.92655 21955 ft 380 kts 269°
2026-04-16 01:42 -5.96156 107.90011 21511 ft 378 kts 270°
2026-04-16 01:43 -5.96144 107.87386 21069 ft 376 kts 270°
2026-04-16 01:43 -5.96145 107.84778 20737 ft 371 kts 269°
2026-04-16 01:43 -5.96152 107.82195 20335 ft 369 kts 269°
2026-04-16 01:43 -5.96159 107.79621 19934 ft 367 kts 269°
2026-04-16 01:44 -5.96162 107.77066 19552 ft 364 kts 270°
2026-04-16 01:44 -5.96164 107.74538 19154 ft 360 kts 270°
2026-04-16 01:44 -5.96166 107.72038 18499 ft 356 kts 270°
2026-04-16 01:44 -5.96165 107.69561 17915 ft 350 kts 270°
2026-04-16 01:45 -5.96162 107.67144 17358 ft 343 kts 270°
2026-04-16 01:45 -5.96161 107.64768 16896 ft 337 kts 270°
2026-04-16 01:45 -5.96160 107.62455 16427 ft 336 kts 270°
2026-04-16 01:45 -5.96159 107.60070 15977 ft 338 kts 270°
2026-04-16 01:46 -5.96159 107.57727 15594 ft 337 kts 270°
2026-04-16 01:46 -5.96160 107.55378 15329 ft 333 kts 270°
2026-04-16 01:46 -5.96159 107.53058 15004 ft 332 kts 270°
2026-04-16 01:46 -5.96158 107.50750 14684 ft 330 kts 270°
2026-04-16 01:47 -5.96157 107.48452 14371 ft 328 kts 270°
2026-04-16 01:47 -5.96158 107.46163 14048 ft 326 kts 270°
2026-04-16 01:47 -5.96159 107.43904 13470 ft 322 kts 270°
2026-04-16 01:47 -5.96162 107.41666 12845 ft 319 kts 270°
2026-04-16 01:48 -5.96164 107.39448 12246 ft 316 kts 270°
2026-04-16 01:48 -5.96165 107.37250 11657 ft 312 kts 270°
2026-04-16 01:48 -5.96164 107.35126 11380 ft 298 kts 270°
2026-04-16 01:48 -5.96161 107.33097 11091 ft 286 kts 270°
2026-04-16 01:49 -5.96160 107.31119 10765 ft 278 kts 270°
2026-04-16 01:49 -5.96159 107.29175 10461 ft 278 kts 269°
2026-04-16 01:49 -5.96159 107.27218 10065 ft 275 kts 269°
2026-04-16 01:49 -5.96158 107.25315 9658 ft 275 kts 270°
2026-04-16 01:50 -5.96157 107.23416 9247 ft 277 kts 269°
2026-04-16 01:50 -5.96154 107.21478 8880 ft 276 kts 270°
2026-04-16 01:50 -5.96151 107.19553 8601 ft 273 kts 270°
2026-04-16 01:50 -5.96148 107.17658 8257 ft 272 kts 270°
2026-04-16 01:51 -5.96145 107.15756 7904 ft 271 kts 270°
2026-04-16 01:51 -5.96142 107.13862 7556 ft 270 kts 269°
2026-04-16 01:51 -5.96139 107.11999 7187 ft 262 kts 269°
2026-04-16 01:51 -5.96219 107.10217 7025 ft 249 kts 258°
2026-04-16 01:52 -5.96734 107.08556 6705 ft 250 kts 248°
2026-04-16 01:52 -5.97371 107.06935 6347 ft 249 kts 248°
2026-04-16 01:52 -5.98009 107.05309 5980 ft 250 kts 248°
2026-04-16 01:52 -5.98644 107.03689 5629 ft 250 kts 248°
2026-04-16 01:53 -5.99284 107.02059 5282 ft 250 kts 248°
2026-04-16 01:53 -5.99919 107.00440 4939 ft 249 kts 248°
2026-04-16 01:53 -6.00554 106.98820 4584 ft 249 kts 248°
2026-04-16 01:53 -6.01188 106.97197 4236 ft 249 kts 248°
2026-04-16 01:54 -6.01811 106.95599 4018 ft 243 kts 248°
2026-04-16 01:54 -6.02425 106.94025 3982 ft 242 kts 248°
2026-04-16 01:54 -6.03052 106.92448 3986 ft 243 kts 248°
2026-04-16 01:54 -6.03680 106.90875 3987 ft 243 kts 247°
2026-04-16 01:55 -6.04298 106.89326 3970 ft 233 kts 247°
2026-04-16 01:55 -6.04896 106.87829 3769 ft 229 kts 247°
2026-04-16 01:55 -6.05272 106.86886 3641 ft 227 kts 247°
2026-04-16 01:56 -6.05442 106.86460 3600 ft 225 kts 247°
2026-04-16 01:56 -6.06013 106.85029 3478 ft 218 kts 247°
2026-04-16 01:56 -6.06569 106.83638 3269 ft 210 kts 247°
2026-04-16 01:57 -6.07104 106.82297 2996 ft 205 kts 247°
2026-04-16 01:57 -6.07616 106.81013 2741 ft 194 kts 247°
2026-04-16 01:57 -6.08106 106.79787 2503 ft 184 kts 248°
2026-04-16 01:57 -6.08569 106.78625 2291 ft 174 kts 247°
2026-04-16 01:58 -6.09008 106.77525 2065 ft 163 kts 248°
2026-04-16 01:58 -6.09416 106.76502 1863 ft 155 kts 247°
2026-04-16 01:58 -6.09815 106.75504 1661 ft 152 kts 247°
2026-04-16 01:58 -6.10206 106.74522 1463 ft 151 kts 248°
2026-04-16 01:59 -6.10594 106.73550 1275 ft 150 kts 247°
2026-04-16 01:59 -6.10980 106.72582 1083 ft 149 kts 246°
2026-04-16 01:59 -6.11364 106.71621 902 ft 149 kts 247°
2026-04-16 01:59 -6.11748 106.70656 729 ft 148 kts 247°
2026-04-16 02:00 -6.12130 106.69701 546 ft 147 kts 246°
2026-04-16 02:00 -6.12513 106.68748 361 ft 147 kts 248°
2026-04-16 02:00 -6.12880 106.67798 168 ft 145 kts 248°
2026-04-16 02:00 -6.13252 106.66873 49 ft 134 kts 247°
2026-04-16 02:01 -6.13544 106.66141 38 ft 76 kts 248°
2026-04-16 02:01 -6.13618 106.65920 39 ft 21 kts 257°
2026-04-16 02:01 -6.13615 106.65783 39 ft 18 kts 283°
2026-04-16 02:01 -6.13603 106.65727 38 ft 7 kts 286°
2026-04-16 02:02 -6.13573 106.65691 38 ft 6 kts 330°
2026-04-16 02:02 -6.13538 106.65695 38 ft 5 kts 38°
2026-04-16 02:02 -6.13537 106.65696 38 ft 5 kts 38°